TimeCST,TemperatureF,Dew PointF,Humidity,Sea Level PressureIn,VisibilityMPH,Wind Direction,Wind SpeedMPH,Gust SpeedMPH,PrecipitationIn,Events,Conditions,WindDirDegrees,DateUTC
12:54 AM,39.9,33.1,77,30.19,10.0,Calm,Calm,-,0.00,Rain,Light Rain,0,2013-01-09 06:54:00
1:54 AM,41.0,35.1,79,30.21,10.0,Calm,Calm,-,0.00,Rain,Light Rain,0,2013-01-09 07:54:00
2:54 AM,42.1,36.0,79,30.22,10.0,SW,4.6,-,0.00,,Overcast,230,2013-01-09 08:54:00
3:54 AM,37.0,33.1,86,30.25,10.0,Calm,Calm,-,N/A,,Clear,0,2013-01-09 09:54:00
4:54 AM,36.0,32.0,86,30.27,10.0,West,8.1,-,N/A,,Clear,270,2013-01-09 10:54:00
5:54 AM,42.1,37.9,85,30.28,10.0,West,8.1,-,N/A,,Clear,270,2013-01-09 11:54:00
6:54 AM,39.9,34.0,79,30.32,10.0,NW,3.5,-,N/A,,Clear,310,2013-01-09 12:54:00
7:54 AM,37.9,33.1,83,30.35,10.0,Calm,Calm,-,N/A,,Clear,0,2013-01-09 13:54:00
8:54 AM,43.0,37.0,80,30.38,10.0,Calm,Calm,-,N/A,,Clear,0,2013-01-09 14:54:00
9:54 AM,46.0,36.0,68,30.40,10.0,West,8.1,-,N/A,,Clear,260,2013-01-09 15:54:00
10:54 AM,48.9,36.0,61,30.40,10.0,WSW,3.5,-,N/A,,Clear,250,2013-01-09 16:54:00
11:54 AM,53.1,34.0,48,30.40,10.0,West,5.8,-,N/A,,Clear,270,2013-01-09 17:54:00
12:54 PM,54.0,33.1,45,30.38,10.0,West,6.9,-,N/A,,Clear,270,2013-01-09 18:54:00
1:54 PM,55.9,33.1,42,30.40,10.0,West,9.2,-,N/A,,Clear,280,2013-01-09 19:54:00
2:54 PM,55.9,30.9,39,30.40,10.0,West,9.2,-,N/A,,Clear,280,2013-01-09 20:54:00
3:54 PM,54.0,32.0,43,30.41,10.0,WNW,3.5,-,N/A,,Clear,300,2013-01-09 21:54:00
4:54 PM,48.9,30.9,50,30.43,10.0,NE,4.6,-,N/A,,Clear,50,2013-01-09 22:54:00
5:54 PM,46.0,30.9,56,30.45,10.0,NE,6.9,-,N/A,,Clear,50,2013-01-09 23:54:00
6:54 PM,41.0,30.0,65,30.47,10.0,NE,8.1,-,N/A,,Clear,40,2013-01-10 00:54:00
7:54 PM,43.0,30.0,60,30.47,10.0,NE,9.2,-,N/A,,Clear,40,2013-01-10 01:54:00
8:54 PM,43.0,30.0,60,30.47,10.0,NE,8.1,-,N/A,,Clear,50,2013-01-10 02:54:00
9:54 PM,36.0,30.0,79,30.48,10.0,ESE,4.6,-,N/A,,Clear,110,2013-01-10 03:54:00
10:54 PM,36.0,30.0,79,30.48,10.0,East,6.9,-,N/A,,Clear,100,2013-01-10 04:54:00
11:54 PM,35.1,30.0,82,30.46,10.0,East,4.6,-,N/A,,Clear,90,2013-01-10 05:54:00